When you browse on this site, cookies collect data to enhance your experience and personalize the content and advertising you see.
Visit our Privacy Policy to learn more. By continuing to use the site, you agree to this use of cookies and data.
  • In Spain
  • List of Countries
  • For 7 days
  • Water Temperature
  • Weather Map
  • Weather Widgets
  • user-avatar
    Login

    Hourly Weather Perugia

    Today, 17 November, Sunday

    Time Temperature Precipitation Wind Pressure Humidity
    00:00 +10°C° 0 mm 2 mps 720 mmHg 93%
    01:00 +9°C° 0 mm 2 mps 719 mmHg 93%
    02:00 +9°C° 0.1 mm 2 mps 718 mmHg 92%
    03:00 +9°C° 0.1 mm 2 mps 718 mmHg 91%
    04:00 +10°C° 0.1 mm 2 mps 717 mmHg 90%
    05:00 +10°C° 4.7 mm 2 mps 717 mmHg 92%
    06:00 +10°C° 4.7 mm 2 mps 717 mmHg 94%
    07:00 +10°C° 4.7 mm 2 mps 717 mmHg 97%
    08:00 +10°C° 1.3 mm 3 mps 717 mmHg 95%
    09:00 +10°C° 1.3 mm 3 mps 718 mmHg 93%
    10:00 +11°C° 1.3 mm 4 mps 719 mmHg 91%
    11:00 +10°C° 0.8 mm 3 mps 719 mmHg 91%
    12:00 +10°C° 0.8 mm 2 mps 720 mmHg 91%
    13:00 +11°C° 0.8 mm 1 mps 720 mmHg 91%
    14:00 +9°C° 0.8 mm 2 mps 720 mmHg 91%
    15:00 +9°C° 0.8 mm 2 mps 720 mmHg 91%
    16:00 +8°C° 0.8 mm 2 mps 721 mmHg 92%
    17:00 +8°C° 0.3 mm 2 mps 721 mmHg 92%
    18:00 +9°C° 0.3 mm 1 mps 722 mmHg 92%
    19:00 +8°C° 0.3 mm 1 mps 722 mmHg 92%
    20:00 +8°C° 0 mm 1 mps 722 mmHg 92%
    21:00 +7°C° 0 mm 1 mps 723 mmHg 93%
    22:00 +7°C° 0 mm 1 mps 723 mmHg 93%
    23:00 +7°C° 0 mm 1 mps 723 mmHg 93%

    Tomorrow, 18 November, Monday

    Time Temperature Precipitation Wind Pressure Humidity
    00:00 +7°C° 0 mm 1 mps 723 mmHg 93%
    01:00 +7°C° 0 mm 1 mps 724 mmHg 92%
    02:00 +6°C° 0 mm 2 mps 724 mmHg 92%
    03:00 +6°C° 0 mm 2 mps 724 mmHg 92%
    04:00 +6°C° 0 mm 2 mps 724 mmHg 92%
    05:00 +6°C° 0.1 mm 2 mps 724 mmHg 92%
    06:00 +6°C° 0.1 mm 2 mps 724 mmHg 92%
    07:00 +6°C° 0.1 mm 2 mps 725 mmHg 92%
    08:00 +8°C° 0 mm 2 mps 725 mmHg 86%
    09:00 +9°C° 0 mm 3 mps 725 mmHg 80%
    10:00 +10°C° 0 mm 3 mps 726 mmHg 73%
    11:00 +11°C° 0 mm 3 mps 726 mmHg 72%
    12:00 +11°C° 0 mm 3 mps 726 mmHg 72%
    13:00 +11°C° 0 mm 4 mps 725 mmHg 71%
    14:00 +11°C° 0.3 mm 3 mps 725 mmHg 75%
    15:00 +11°C° 0.3 mm 3 mps 725 mmHg 79%
    16:00 +10°C° 0.3 mm 3 mps 724 mmHg 83%
    17:00 +10°C° 0.5 mm 3 mps 724 mmHg 85%
    18:00 +9°C° 0.5 mm 2 mps 724 mmHg 88%
    19:00 +9°C° 0.5 mm 2 mps 724 mmHg 90%
    20:00 +9°C° 0.6 mm 2 mps 724 mmHg 90%
    21:00 +9°C° 0.6 mm 2 mps 724 mmHg 90%
    22:00 +9°C° 0.6 mm 2 mps 725 mmHg 90%
    23:00 +9°C° 0.4 mm 2 mps 725 mmHg 90%

    Day after tomorrow, 19 November, Tuesday

    Time Temperature Precipitation Wind Pressure Humidity
    00:00 +9°C° 0.4 mm 2 mps 725 mmHg 90%
    01:00 +9°C° 0.4 mm 2 mps 725 mmHg 90%
    02:00 +9°C° 2 mm 2 mps 724 mmHg 91%
    03:00 +9°C° 2 mm 2 mps 724 mmHg 92%
    04:00 +10°C° 2 mm 1 mps 724 mmHg 92%
    05:00 +10°C° 2.5 mm 1 mps 724 mmHg 93%
    06:00 +8°C° 2.5 mm 2 mps 724 mmHg 95%
    07:00 +8°C° 2.5 mm 2 mps 725 mmHg 96%
    08:00 +9°C° 0.3 mm 2 mps 725 mmHg 93%
    09:00 +9°C° 0.3 mm 2 mps 725 mmHg 89%
    10:00 +10°C° 0.3 mm 2 mps 726 mmHg 86%
    11:00 +10°C° 0.2 mm 2 mps 726 mmHg 85%
    12:00 +10°C° 0.2 mm 2 mps 726 mmHg 83%
    13:00 +11°C° 0.2 mm 1 mps 726 mmHg 82%
    14:00 +11°C° 0.1 mm 1 mps 726 mmHg 82%
    15:00 +11°C° 0.1 mm 1 mps 726 mmHg 83%
    16:00 +11°C° 0.1 mm 1 mps 726 mmHg 84%
    17:00 +9°C° 0.1 mm 0 mps 726 mmHg 86%
    18:00 +9°C° 0.1 mm 0 mps 727 mmHg 88%
    19:00 +8°C° 0.1 mm 0 mps 727 mmHg 90%
    20:00 +9°C° 0 mm 1 mps 727 mmHg 90%
    21:00 +8°C° 0 mm 1 mps 727 mmHg 91%
    22:00 +8°C° 0 mm 1 mps 727 mmHg 92%
    23:00 +8°C° 0 mm 1 mps 728 mmHg 92%

    20 November, Wednesday

    Time Temperature Precipitation Wind Pressure Humidity
    00:00 +7°C° 0 mm 1 mps 728 mmHg 92%
    01:00 +7°C° 0 mm 1 mps 728 mmHg 92%
    02:00 +6°C° 0 mm 1 mps 728 mmHg 92%
    03:00 +5°C° 0 mm 0 mps 728 mmHg 92%
    04:00 +4°C° 0 mm 0 mps 728 mmHg 92%
    05:00 +4°C° 0 mm 0 mps 728 mmHg 91%
    06:00 +5°C° 0 mm 1 mps 728 mmHg 91%
    07:00 +5°C° 0 mm 1 mps 728 mmHg 91%
    08:00 +7°C° 0 mm 1 mps 729 mmHg 86%
    09:00 +8°C° 0 mm 1 mps 729 mmHg 82%
    10:00 +10°C° 0 mm 1 mps 730 mmHg 77%
    11:00 +10°C° 0 mm 1 mps 730 mmHg 73%
    12:00 +11°C° 0 mm 1 mps 730 mmHg 69%
    13:00 +12°C° 0 mm 1 mps 730 mmHg 65%
    14:00 +12°C° 0 mm 1 mps 729 mmHg 68%
    15:00 +11°C° 0 mm 1 mps 729 mmHg 71%
    16:00 +11°C° 0 mm 1 mps 729 mmHg 75%
    17:00 +10°C° 0 mm 1 mps 729 mmHg 77%
    18:00 +9°C° 0 mm 1 mps 729 mmHg 79%
    19:00 +8°C° 0 mm 1 mps 729 mmHg 82%
    20:00 +8°C° 0 mm 1 mps 729 mmHg 83%
    21:00 +7°C° 0 mm 1 mps 729 mmHg 84%
    22:00 +7°C° 0 mm 1 mps 729 mmHg 85%
    23:00 +7°C° 0 mm 1 mps 729 mmHg 84%

    21 November, Thursday

    Time Temperature Precipitation Wind Pressure Humidity
    00:00 +7°C° 0 mm 1 mps 729 mmHg 83%
    01:00 +7°C° 0 mm 1 mps 729 mmHg 82%
    02:00 +7°C° 0 mm 1 mps 728 mmHg 80%
    03:00 +7°C° 0 mm 1 mps 728 mmHg 78%
    04:00 +7°C° 0 mm 1 mps 728 mmHg 77%
    05:00 +7°C° 0 mm 1 mps 728 mmHg 75%
    06:00 +7°C° 0 mm 1 mps 728 mmHg 74%
    07:00 +7°C° 0 mm 1 mps 727 mmHg 73%
    08:00 +8°C° 0 mm 1 mps 728 mmHg 71%
    09:00 +9°C° 0 mm 1 mps 728 mmHg 70%
    10:00 +10°C° 0 mm 1 mps 728 mmHg 68%
    11:00 +10°C° 0.4 mm 1 mps 728 mmHg 74%
    12:00 +10°C° 0.4 mm 1 mps 727 mmHg 79%
    13:00 +10°C° 0.4 mm 1 mps 727 mmHg 84%
    14:00 +10°C° 0.4 mm 1 mps 727 mmHg 86%
    15:00 +10°C° 0.4 mm 1 mps 727 mmHg 87%
    16:00 +9°C° 0.4 mm 2 mps 726 mmHg 89%
    17:00 +9°C° 0.4 mm 2 mps 726 mmHg 90%
    18:00 +9°C° 0.4 mm 2 mps 726 mmHg 92%
    19:00 +9°C° 0.4 mm 2 mps 726 mmHg 93%
    20:00 +9°C° 0 mm 2 mps 727 mmHg 92%
    21:00 +9°C° 0 mm 2 mps 727 mmHg 91%
    22:00 +9°C° 0 mm 2 mps 727 mmHg 91%
    23:00 +8°C° 0 mm 2 mps 727 mmHg 91%

    22 November, Friday

    Time Temperature Precipitation Wind Pressure Humidity
    00:00 +8°C° 0 mm 2 mps 727 mmHg 91%
    01:00 +8°C° 0 mm 2 mps 727 mmHg 91%
    02:00 +8°C° 0 mm 2 mps 727 mmHg 91%
    03:00 +8°C° 0 mm 2 mps 727 mmHg 92%
    04:00 +9°C° 0 mm 1 mps 726 mmHg 92%
    05:00 +9°C° 0 mm 1 mps 727 mmHg 91%
    06:00 +9°C° 0 mm 1 mps 727 mmHg 91%
    07:00 +9°C° 0 mm 1 mps 727 mmHg 91%
    08:00 +10°C° 0 mm 1 mps 727 mmHg 87%
    09:00 +12°C° 0 mm 1 mps 728 mmHg 83%
    10:00 +13°C° 0 mm 1 mps 728 mmHg 79%
    11:00 +14°C° 0 mm 2 mps 728 mmHg 76%
    12:00 +15°C° 0 mm 2 mps 728 mmHg 73%
    13:00 +15°C° 0 mm 2 mps 728 mmHg 71%
    14:00 +15°C° 0 mm 2 mps 728 mmHg 75%
    15:00 +14°C° 0 mm 1 mps 728 mmHg 78%
    16:00 +13°C° 0 mm 1 mps 727 mmHg 82%
    17:00 +13°C° 0 mm 1 mps 728 mmHg 83%
    18:00 +12°C° 0 mm 1 mps 728 mmHg 85%
    19:00 +11°C° 0 mm 1 mps 728 mmHg 86%
    20:00 +11°C° 0 mm 1 mps 728 mmHg 86%
    21:00 +11°C° 0 mm 1 mps 728 mmHg 86%
    22:00 +10°C° 0 mm 1 mps 728 mmHg 86%
    23:00 +10°C° 0 mm 1 mps 728 mmHg 85%
    Show more